Location: Lourdes
(43.1000°N, 0.0500°W)
Time: 23:08:53
(UTC+00:00)

FENGYUN 1C DEB - Visible Passes

Search period start: 24 June 2021 00:00
Search period end: 04 July 2021 00:00
Orbit: 556 x 805 km, 99.0° (Epoch: 24 June)

Date Brightness Start Highest point End Pass type
(mag) Time Alt. Az. Time Alt. Az. Time Alt. Az.
24 Jun ? 01:28:59 25° WSW 01:29:37 26° W 01:34:00 10° NW visible
24 Jun ? 22:48:56 10° E 22:51:38 14° ENE 22:54:19 10° NNE visible
25 Jun ? 00:26:53 56° SSE 00:28:03 90° ENE 00:33:22 10° NNW visible
25 Jun ? 02:05:18 12° W 02:05:51 12° W 02:07:53 10° WNW visible
25 Jun ? 23:24:47 20° ESE 23:27:03 27° ENE 23:31:25 10° N visible
26 Jun ? 01:03:12 41° WSW 01:03:58 44° W 01:09:01 10° NNW visible
27 Jun ? 00:01:06 39° ESE 00:02:39 53° ENE 00:07:45 10° N visible
27 Jun ? 01:39:31 21° WSW 01:40:03 21° W 01:44:03 10° NW visible
27 Jun ? 22:59:00 11° E 23:01:52 17° ENE 23:05:05 10° NNE visible
28 Jun ? 00:37:25 58° S 00:38:26 76° WSW 00:43:41 10° NNW visible
28 Jun ? 23:35:19 24° ESE 23:37:20 32° ENE 23:41:54 10° N visible
29 Jun ? 01:13:44 35° WSW 01:14:23 36° W 01:19:12 10° NNW visible
30 Jun ? 00:11:38 47° SE 00:12:58 64° ENE 00:18:08 10° N visible
30 Jun ? 01:50:03 17° W 01:50:30 18° W 01:53:58 10° NW visible
30 Jun ? 23:09:32 14° E 23:12:05 20° ENE 23:15:42 10° NNE visible
01 Jul ? 00:47:57 55° SW 00:48:47 63° WSW 00:53:57 10° NNW visible
01 Jul ? 23:45:51 29° ESE 23:47:35 37° ENE 23:52:18 10° N visible
02 Jul ? 01:24:16 29° WSW 01:24:46 30° W 01:29:18 10° NW visible
02 Jul ? 22:45:11 10° ENE 22:46:54 12° ENE 22:48:37 10° NE visible
03 Jul ? 00:22:10 56° SE 00:23:17 77° ENE 00:28:25 10° N visible
03 Jul ? 02:00:36 14° W 02:00:55 14° W 02:03:39 10° WNW visible
03 Jul ? 23:20:04 17° E 23:22:17 23° ENE 23:26:12 10° NNE visible
